Météo par heure à Jugoszow

Ce jour, 20 Juin, Dimanche

Heure Température Précipitation Vent Pression Humidité
00:00 +18°C° 0 mm 2 m/s 744 mmHg 94%
01:00 +17°C° 0 mm 2 m/s 743 mmHg 95%
02:00 +17°C° 0 mm 2 m/s 743 mmHg 95%
03:00 +17°C° 0 mm 2 m/s 743 mmHg 95%
04:00 +17°C° 0 mm 2 m/s 743 mmHg 94%
05:00 +18°C° 0 mm 3 m/s 743 mmHg 86%
06:00 +20°C° 0 mm 4 m/s 743 mmHg 78%
07:00 +22°C° 0 mm 4 m/s 743 mmHg 70%
08:00 +23°C° 0 mm 4 m/s 743 mmHg 64%
09:00 +26°C° 0 mm 4 m/s 743 mmHg 57%
10:00 +27°C° 0 mm 4 m/s 743 mmHg 50%
11:00 +28°C° 0 mm 4 m/s 743 mmHg 48%
12:00 +29°C° 0 mm 4 m/s 742 mmHg 46%
13:00 +30°C° 0 mm 3 m/s 742 mmHg 45%
14:00 +30°C° 0 mm 3 m/s 742 mmHg 47%
15:00 +30°C° 0 mm 4 m/s 741 mmHg 49%
16:00 +29°C° 0 mm 4 m/s 741 mmHg 51%
17:00 +28°C° 0.1 mm 4 m/s 741 mmHg 60%
18:00 +26°C° 0.1 mm 4 m/s 741 mmHg 69%
19:00 +25°C° 0.1 mm 3 m/s 741 mmHg 78%
20:00 +22°C° 0 mm 3 m/s 741 mmHg 82%
21:00 +21°C° 0 mm 3 m/s 740 mmHg 87%
22:00 +20°C° 0 mm 2 m/s 740 mmHg 91%
23:00 +19°C° 0 mm 2 m/s 740 mmHg 92%

Demain, 21 Juin, Lundi

Heure Température Précipitation Vent Pression Humidité
00:00 +19°C° 0 mm 2 m/s 740 mmHg 93%
01:00 +18°C° 0 mm 2 m/s 740 mmHg 94%
02:00 +18°C° 0 mm 2 m/s 740 mmHg 95%
03:00 +18°C° 0 mm 2 m/s 739 mmHg 96%
04:00 +18°C° 0 mm 2 m/s 739 mmHg 96%
05:00 +19°C° 0 mm 3 m/s 739 mmHg 91%
06:00 +21°C° 0 mm 4 m/s 739 mmHg 85%
07:00 +22°C° 0 mm 4 m/s 740 mmHg 79%
08:00 +25°C° 0 mm 4 m/s 739 mmHg 72%
09:00 +26°C° 0 mm 4 m/s 739 mmHg 66%
10:00 +28°C° 0 mm 4 m/s 739 mmHg 59%
11:00 +29°C° 0 mm 4 m/s 739 mmHg 56%
12:00 +29°C° 0 mm 4 m/s 739 mmHg 54%
13:00 +30°C° 0 mm 3 m/s 739 mmHg 51%
14:00 +30°C° 0 mm 3 m/s 738 mmHg 52%
15:00 +30°C° 0 mm 4 m/s 738 mmHg 53%
16:00 +30°C° 0 mm 4 m/s 738 mmHg 54%
17:00 +28°C° 0 mm 4 m/s 738 mmHg 60%
18:00 +27°C° 0 mm 4 m/s 738 mmHg 67%
19:00 +26°C° 0 mm 4 m/s 738 mmHg 73%
20:00 +25°C° 0 mm 3 m/s 738 mmHg 78%
21:00 +22°C° 0 mm 3 m/s 738 mmHg 84%
22:00 +21°C° 0 mm 2 m/s 738 mmHg 89%
23:00 +21°C° 0 mm 2 m/s 738 mmHg 91%

Après-demain, 22 Juin, Mardi

Heure Température Précipitation Vent Pression Humidité
00:00 +20°C° 0 mm 2 m/s 738 mmHg 92%
01:00 +20°C° 0 mm 2 m/s 738 mmHg 93%
02:00 +19°C° 0.3 mm 2 m/s 738 mmHg 94%
03:00 +20°C° 0.3 mm 1 m/s 738 mmHg 94%
04:00 +20°C° 0.3 mm 1 m/s 738 mmHg 95%
05:00 +21°C° 0.2 mm 1 m/s 739 mmHg 91%
06:00 +21°C° 0.2 mm 2 m/s 739 mmHg 88%
07:00 +23°C° 0.2 mm 2 m/s 739 mmHg 84%
08:00 +25°C° 0 mm 2 m/s 739 mmHg 77%
09:00 +27°C° 0 mm 2 m/s 740 mmHg 70%
10:00 +29°C° 0 mm 2 m/s 740 mmHg 63%
11:00 +29°C° 0.2 mm 2 m/s 740 mmHg 60%
12:00 +30°C° 0.2 mm 2 m/s 740 mmHg 56%
13:00 +31°C° 0.2 mm 2 m/s 740 mmHg 53%
14:00 +31°C° 0.2 mm 2 m/s 740 mmHg 53%
15:00 +31°C° 0.2 mm 1 m/s 740 mmHg 53%
16:00 +31°C° 0.2 mm 1 m/s 740 mmHg 54%
17:00 +29°C° 0.1 mm 2 m/s 740 mmHg 60%
18:00 +28°C° 0.1 mm 2 m/s 740 mmHg 67%
19:00 +27°C° 0.1 mm 2 m/s 741 mmHg 74%
20:00 +25°C° 0.3 mm 2 m/s 741 mmHg 79%
21:00 +24°C° 0.3 mm 2 m/s 741 mmHg 84%
22:00 +23°C° 0.3 mm 2 m/s 741 mmHg 89%
23:00 +21°C° 0 mm 2 m/s 741 mmHg 90%

23 Juin, Mercredi

Heure Température Précipitation Vent Pression Humidité
00:00 +21°C° 0 mm 2 m/s 741 mmHg 91%
01:00 +21°C° 0 mm 2 m/s 741 mmHg 92%
02:00 +21°C° 0 mm 2 m/s 741 mmHg 92%
03:00 +21°C° 0 mm 2 m/s 741 mmHg 93%
04:00 +20°C° 0 mm 2 m/s 741 mmHg 93%
05:00 +23°C° 0 mm 2 m/s 741 mmHg 87%
06:00 +25°C° 0 mm 2 m/s 741 mmHg 81%
07:00 +26°C° 0 mm 3 m/s 741 mmHg 76%
08:00 +28°C° 0 mm 3 m/s 741 mmHg 68%
09:00 +30°C° 0 mm 3 m/s 742 mmHg 60%
10:00 +32°C° 0 mm 2 m/s 742 mmHg 52%
11:00 +32°C° 0 mm 2 m/s 742 mmHg 49%
12:00 +34°C° 0 mm 2 m/s 742 mmHg 45%
13:00 +35°C° 0 mm 2 m/s 742 mmHg 42%
14:00 +35°C° 0 mm 2 m/s 742 mmHg 43%
15:00 +35°C° 0 mm 2 m/s 742 mmHg 44%
16:00 +34°C° 0 mm 2 m/s 742 mmHg 45%
17:00 +33°C° 0.1 mm 3 m/s 742 mmHg 54%
18:00 +30°C° 0.1 mm 3 m/s 742 mmHg 62%
19:00 +28°C° 0.1 mm 4 m/s 742 mmHg 70%
20:00 +26°C° 2.8 mm 4 m/s 743 mmHg 78%
21:00 +22°C° 2.8 mm 4 m/s 744 mmHg 85%
22:00 +20°C° 2.8 mm 4 m/s 744 mmHg 93%
23:00 +20°C° 0.3 mm 4 m/s 744 mmHg 94%

24 Juin, Jeudi

Heure Température Précipitation Vent Pression Humidité
00:00 +19°C° 0.3 mm 3 m/s 744 mmHg 94%
01:00 +19°C° 0.3 mm 3 m/s 744 mmHg 94%
02:00 +19°C° 0 mm 3 m/s 744 mmHg 95%
03:00 +19°C° 0 mm 2 m/s 745 mmHg 95%
04:00 +18°C° 0 mm 2 m/s 745 mmHg 96%
05:00 +19°C° 0 mm 2 m/s 745 mmHg 90%
06:00 +20°C° 0 mm 2 m/s 745 mmHg 85%
07:00 +21°C° 0 mm 2 m/s 745 mmHg 79%
08:00 +23°C° 0 mm 2 m/s 745 mmHg 74%
09:00 +25°C° 0 mm 2 m/s 745 mmHg 68%
10:00 +27°C° 0 mm 1 m/s 745 mmHg 63%
11:00 +28°C° 0 mm 1 m/s 745 mmHg 60%
12:00 +29°C° 0 mm 2 m/s 745 mmHg 58%
13:00 +30°C° 0 mm 2 m/s 745 mmHg 56%
14:00 +30°C° 0 mm 2 m/s 744 mmHg 55%
15:00 +30°C° 0 mm 2 m/s 744 mmHg 55%
16:00 +31°C° 0 mm 2 m/s 744 mmHg 55%
17:00 +29°C° 0 mm 2 m/s 743 mmHg 62%
18:00 +28°C° 0 mm 3 m/s 743 mmHg 69%
19:00 +27°C° 0 mm 3 m/s 742 mmHg 76%
20:00 +26°C° 0.1 mm 3 m/s 742 mmHg 80%
21:00 +25°C° 0.1 mm 3 m/s 742 mmHg 85%
22:00 +24°C° 0.1 mm 3 m/s 742 mmHg 89%
23:00 +24°C° 0.3 mm 3 m/s 741 mmHg 89%

25 Juin, Vendredi

Heure Température Précipitation Vent Pression Humidité
00:00 +22°C° 0.3 mm 3 m/s 741 mmHg 90%
01:00 +22°C° 0.3 mm 3 m/s 741 mmHg 90%
02:00 +21°C° 1.2 mm 3 m/s 741 mmHg 92%
03:00 +21°C° 1.2 mm 3 m/s 741 mmHg 94%
04:00 +20°C° 1.2 mm 3 m/s 741 mmHg 96%
05:00 +20°C° 0.2 mm 3 m/s 741 mmHg 92%
06:00 +21°C° 0.2 mm 3 m/s 742 mmHg 89%
07:00 +22°C° 0.2 mm 3 m/s 742 mmHg 85%
08:00 +22°C° 0 mm 4 m/s 743 mmHg 82%
09:00 +23°C° 0 mm 5 m/s 743 mmHg 78%
10:00 +23°C° 0 mm 6 m/s 743 mmHg 75%
11:00 +23°C° 0 mm 6 m/s 743 mmHg 73%
12:00 +23°C° 0 mm 6 m/s 744 mmHg 72%
13:00 +23°C° 0 mm 6 m/s 744 mmHg 70%
14:00 +22°C° 0 mm 6 m/s 744 mmHg 70%
15:00 +22°C° 0 mm 6 m/s 744 mmHg 70%
16:00 +21°C° 0 mm 6 m/s 744 mmHg 70%
17:00 +21°C° 0 mm 5 m/s 744 mmHg 70%
18:00 +20°C° 0 mm 4 m/s 745 mmHg 71%
19:00 +19°C° 0 mm 4 m/s 745 mmHg 72%
20:00 +19°C° 0 mm 4 m/s 745 mmHg 73%
21:00 +18°C° 0 mm 3 m/s 745 mmHg 73%
22:00 +18°C° 0 mm 3 m/s 745 mmHg 73%
23:00 +17°C° 0 mm 3 m/s 745 mmHg 79%
Voir plus

Nous avons besoin de votre consentement

Meteoprog et ses fournisseurs de services peuvent stocker et accéder à des données personnelles telles que des cookies, des identifiants d'appareils ou d'autres technologies similaires sur votre appareil et traiter ces données pour personnaliser le contenu et les publicités, ainsi que pour fournir des fonctionnalités de médias sociaux et analyser le trafic.

  • Stocker et/ou accéder à des informations sur votre appareil

    Des cookies, des identifiants d'appareils ou d'autres informations peuvent être stockés ou accessibles sur votre appareil aux fins indiquées ci-dessus.

  • Annonces et contenus personnalisés, mesure des annonces et des contenus, connaissance de l'audience et développement de produits

    Les annonces et le contenu peuvent être personnalisés en fonction d'un profil. D'autres données peuvent être ajoutées pour mieux personnaliser les annonces et le contenu. Les performances des publicités et du contenu peuvent être mesurées. Il est possible d'obtenir des informations sur le public qui a vu les publicités et le contenu. Ces données peuvent être utilisées pour développer ou améliorer l'expérience de l'utilisateur, les systèmes et les logiciels.

En cliquant sur "J'accepte", vous autorisez l'utilisation de cookies, des identifiants d'appareils, des balises web ou d'autres technologies similaires. Vos paramètres peuvent être modifiés dans le navigateur de votre appareil.

Dans certains cas, des intérêts légitimes peuvent être invoqués plutôt qu'un consentement. Vous pouvez en savoir plus à ce sujet dans notre Politique de confidentialité et de cookies.